This is the latest recevied weather packets stored in our database for station/object KE8RXN. If no packets are shown the sender has not sent any weather packets the latest 10 day(s).
| Time | Temp. | Humidity | Pressure | Rain* | Wind** | Luminosity | Snow |
|---|---|---|---|---|---|---|---|
| 1778004293 | 12.78° C | 41% | 1011.7 hPa | 0 mm | - | 508 W/m² | - |
| 1778003990 | 12.22° C | 41% | 1011.7 hPa | 0 mm | - | 526 W/m² | - |
| 1778003686 | 12.78° C | 38% | 1011.6 hPa | 0 mm | - | 495 W/m² | - |
| 1778003383 | 12.78° C | 38% | 1011.6 hPa | 0 mm | - | 505 W/m² | - |
| 1778003080 | 12.78° C | 39% | 1011.3 hPa | 0 mm | - | 498 W/m² | - |
| 1778002776 | 12.22° C | 40% | 1011.2 hPa | 0 mm | - | 544 W/m² | - |
| 1778002472 | 12.78° C | 35% | 1011 hPa | 0 mm | - | 627 W/m² | - |
| 1778002169 | 12.78° C | 36% | 1011 hPa | 0 mm | - | 604 W/m² | - |
| 1778001868 | 12.22° C | 38% | 1011 hPa | 0 mm | - | 480 W/m² | - |
| 1778001566 | 12.78° C | 38% | 1011 hPa | 0 mm | - | 501 W/m² | - |
| 1778001264 | 12.78° C | 37% | 1011 hPa | 0 mm | - | 146 W/m² | - |
| 1778000960 | 12.78° C | 36% | 1010.9 hPa | 0 mm | - | 247 W/m² | - |
| 1778000657 | 12.22° C | 36% | 1011 hPa | 0 mm | - | 356 W/m² | - |
| 1778000352 | 12.22° C | 35% | 1010.8 hPa | 0 mm | - | 482 W/m² | - |
| 1778000049 | 12.78° C | 36% | 1010.9 hPa | 0 mm | - | 422 W/m² | - |
| 1777999744 | 12.78° C | 35% | 1010.9 hPa | 0 mm | - | 507 W/m² | - |
| 1777999441 | 12.78° C | 36% | 1011 hPa | 0 mm | - | 477 W/m² | - |
| 1777999139 | 12.78° C | 36% | 1010.9 hPa | 0 mm | - | 668 W/m² | - |
| 1777998838 | 13.33° C | 36% | 1010.9 hPa | 0 mm | - | 656 W/m² | - |
| 1777998536 | 12.78° C | 37% | 1010.7 hPa | 0 mm | - | 787 W/m² | - |
| 1777998232 | 12.22° C | 35% | 1011 hPa | 0 mm | - | 881 W/m² | - |
| 1777997929 | 12.22° C | 35% | 1011 hPa | 0 mm | - | 869 W/m² | - |
| 1777997626 | 12.22° C | 38% | 1010.7 hPa | 0 mm | - | 712 W/m² | - |
| 1777997323 | 12.22° C | 37% | 1010.9 hPa | 0 mm | - | 622 W/m² | - |
| 1777997021 | 12.22° C | 36% | 1011 hPa | 0 mm | - | 594 W/m² | - |
* Rain latest hour (hover to see other rain measurements)
** Current wind speed in m/s (hover to see current wind gust speed)